This is the latest recevied weather packets stored in our database for station/object GW1497. If no packets are shown the sender has not sent any weather packets the latest 10 day(s).
| Time | Temp. | Humidity | Pressure | Rain* | Wind** | Luminosity | Snow |
|---|---|---|---|---|---|---|---|
| 1777927172 | 20° C | 56% | 1011.5 hPa | 0 mm | - | - | - |
| 1777925741 | 20.56° C | 53% | 1011.5 hPa | 0 mm | - | - | - |
| 1777921789 | 21.11° C | 55% | 1011.8 hPa | 0 mm | - | - | - |
| 1777917800 | 20° C | 51% | 1012.1 hPa | 0 mm | - | - | - |
| 1777915633 | 20° C | 53% | 1012.8 hPa | 0 mm | - | - | - |
| 1777913498 | 18.89° C | 55% | 1013.2 hPa | 0 mm | - | - | - |
| 1777911690 | 17.22° C | 57% | 1013.8 hPa | 0 mm | - | - | - |
| 1777911312 | 17.78° C | 57% | 1013.8 hPa | 0 mm | - | - | - |
| 1777910082 | 16.67° C | 59% | 1013.8 hPa | 0 mm | - | - | - |
| 1777908269 | 16.67° C | 61% | 1014.5 hPa | 0 mm | - | - | - |
| 1777898905 | 13.33° C | 58% | 1014.5 hPa | 0 mm | - | - | - |
| 1777896405 | 11.67° C | 64% | 1014.5 hPa | 0 mm | - | - | - |
| 1777895323 | 11.11° C | 68% | 1014.5 hPa | 0 mm | - | - | - |
| 1777888488 | 9.44° C | 77% | 1014.9 hPa | 0 mm | - | - | - |
| 1777888097 | 9.44° C | 77% | 1015.2 hPa | 0 mm | - | - | - |
| 1777885574 | 9.44° C | 74% | 1015.2 hPa | 0 mm | - | - | - |
| 1777884141 | 9.44° C | 71% | 1015.5 hPa | 0 mm | - | - | - |
| 1777882695 | 10° C | 68% | 1015.5 hPa | 0 mm | - | - | - |
| 1777882336 | 10° C | 65% | 1015.5 hPa | 0 mm | - | - | - |
| 1777861114 | 12.22° C | 46% | 1016.5 hPa | 0 mm | - | - | - |
| 1777857134 | 12.22° C | 44% | 1016.5 hPa | 0 mm | - | - | - |
| 1777856078 | 12.78° C | 44% | 1016.9 hPa | 0 mm | - | - | - |
| 1777849972 | 13.89° C | 38% | 1016.9 hPa | 0 mm | - | - | - |
| 1777848143 | 14.44° C | 39% | 1016.9 hPa | 0 mm | - | - | - |
| 1777836981 | 15° C | 37% | 1018.2 hPa | 0 mm | - | - | - |
* Rain since midnight (hover to see other rain measurements)
** Current wind speed in m/s (hover to see current wind gust speed)